SCP
0 0 0 0 0 0 0 0 0 0 0 0 0 0 0 0 0 0 0 0 0 0 0 0 0 0 0 0 0 0 0 0 0 0 0 0 0 0
0 0 0 0 0 0 0 0 0 0 0 0 0 0 0 0 0 0 0 0 0 0 0 0 0 0 0 0 0 0 0 0 0 0 0 0 0 0
0 0 0 0 0 0 0 0 0 0 0 0 0 0 0 0 0 0 0 0 0 0 0 0 0 0 0 0 0 0 0 0 0 0 0 0 0 0
0 0 0 0 0 0 0 0 0 0 0 0 0 0 0 0 0 0 0 0 0 0 0 0 0 0 0 0 0 0 0 0 0 0 0 0 0 0
0 0 0 0 0 0 0 0 0 0 0 0 0 0 0 0 0 0 0 0 0 0 0 0 0 0 0 0 0 0 0 0 0 0 0 0 0 0
0 0 0 0 0 0 0 0 0 0 0 0 0 0 0 0 0 0 0 0 0 0 0 0 0 0 0 0 0 0 0 0 0 0 0 0 0 0
0 0 0 0 0 0 0 0 0 0 0 0 0 0 0 0 0 0 0 0 0 0 0 0 0 0 0 0 0 0 0 0 0 0 0 0 0 0
0 0 0 0 0 0 0 0 0 0 0 0 0 0 0 0 0 0 0 0 0 0 0 0 0 0 0 0 0 0 0 0 0 0 0 0 0 0
0 0 0 0 0 0 0 0 0 0 0 0 0 0 0 0 0 0 0 0 0 0 0 0 0 0 0 0 0 0 0 0 0 0 0 0 0 0
0 0 0 0 0 0 0 0 0 0 0 0 0 0 0 0 0 0 0 0 0 0 0 0 0 0 0 0 0 0 0 0 0 0 0 0 0 0
0 0 0 0 0 0 0 0 0 0 0 0 0 0 0 0 0 0 0 0 0 0 0 0 0 0 0 0 0 0 0 0 0 0 0 0 0 0
0 0 0 0 0 0 0 0 0 0 0 0 0 0 0 0 0 0 0 0 0 0 0 0 0 0 0 0 0 0 0 0 0 0 0 0 0 0
0 0 0 0 0 0 0 0 0 0 0 0 0 0 0 0 0 0 0 0 0 0 0 0 0 0 0 0 0 0 0 0 0 0 0 0 0 0
0 0 0 0 0 0 0 0 0 0 0 0 0 0 0 0 0 0 0 0 0 0 0 0 0 0 0 0 0 0 0 0 0 0 0 0 0 0
0 0 0 0 0 0 0 0 0 0 0 0 0 0 0 0 0 0 0 0 0 0 0 0 0 0 0 0 0 0 0 0 0 0 0 0 0 0
0 0 0 0 0 0 0 0 0 0 0 0 0 0 0 0 0 0 0 0 0 0 0 0 0 0 0 0 0 0 0 0 0 0 0 0 0 0
0 0 0 0 0 0 0 0 0 0 0 0 0 0 0 0 0 0 0 0 0 0 0 0 0 0 0 0 0 0 0 0 0 0 0 0 0 0
0 0 0 0 0 0 0 0 0 0 0 0 0 0 0 0 0 0 0 0 0 0 0 0 0 0 0 0 0 0 0 0 0 0 0 0 0 0
0 0 0 0 0 0 0 0 0 0 0 0 0 0 0 0 0 0 0 0 0 0 0 0 0 0 0 0 0 0 0 0 0 0 0 0 0 0
0 0 0 0 0 0 0 0 0 0 0 0 0 0 0 0 0 0 0 0 0 0 0 0 0 0 0 0 0 0 0 0 0 0 0 0 0 0
0 0 0 0 0 0 0 0 0 0 0 0 0 0 0 0 0 0 0 0 0 0 0 0 0 0 0 0 0 0 0 0 0 0 0 0 0 0
0 0 0 0 0 0 0 0 0 0 0 0 0 0 0 0 0 0 0 0 0 0 0 0 0 0 0 0 0 0 0 0 0 0 0 0 0 0
0 0 0 0 0 0 0 0 0 0 0 0 0 0 0 0 0 0 0 0 0 0 0 0 0 0 0 0 0 0 0 0 0 0 0 0 0 0
Wind_Speed
1 2 1 1 1 2 2 3 4 2 1 2 1 2 1 1 2 2 2 5 6 6 6 7 7 7 8 9 9 10 10 10 10 10 10 10 10 9
1 2 1 1 1 1 2 2 2 4 2 1 1 1 1 1 2 2 2 4 5 5 6 6 7 7 7 8 8 8 9 9 8 9 9 9 9 9
0 1 1 1 1 1 2 2 2 2 3 1 1 1 1 2 2 2 2 2 2 4 5 5 6 6 6 6 7 7 7 7 7 7 7 8 8 9
1 1 1 2 2 1 2 2 1 2 3 2 0 1 1 1 1 2 2 2 1 3 3 4 4 5 5 5 5 6 6 6 6 6 6 6 7 7
2 2 2 2 2 1 2 2 1 2 2 3 1 0 1 1 1 2 2 1 1 2 2 2 3 3 3 3 3 4 4 5 5 5 5 6 6 6
1 2 2 3 3 3 2 2 2 2 2 2 1 0 0 0 1 1 1 1 1 2 2 2 2 2 2 2 2 2 3 3 4 4 5 5 5 5
1 1 2 3 4 4 3 3 3 3 2 2 1 0 0 1 1 1 1 0 1 1 1 1 1 1 1 2 1 1 1 2 2 3 4 4 4 5
1 1 1 2 3 4 4 5 6 5 4 3 2 2 3 3 2 2 2 1 1 1 0 1 0 1 2 1 2 1 1 1 1 2 3 3 3 4
2 1 1 1 2 2 2 3 4 5 6 5 4 4 4 4 4 3 3 3 2 1 1 1 1 1 2 2 3 2 1 1 1 1 1 2 3 3
2 2 2 2 2 3 2 2 1 2 3 3 4 5 4 4 5 5 4 2 1 0 2 1 1 1 2 2 3 2 2 2 2 2 2 2 2 3
2 2 2 2 4 5 3 2 1 2 2 3 4 3 3 4 5 3 2 2 1 2 2 2 1 1 1 2 2 2 2 2 2 2 2 2 2 2
1 1 3 4 4 5 4 4 3 3 1 1 1 2 1 2 5 4 4 3 2 2 2 2 1 1 1 1 2 2 1 2 2 2 2 2 2 1
2 2 2 5 5 5 5 4 5 4 2 2 1 0 0 0 1 2 3 4 4 3 3 3 2 2 2 2 2 1 1 1 1 1 2 2 2 1
3 3 3 5 5 5 4 4 4 2 1 1 1 1 1 2 2 2 2 3 3 3 3 4 3 3 2 1 2 2 2 1 1 1 1 2 2 3
3 4 4 4 4 3 4 4 3 1 1 1 2 3 2 2 1 1 1 1 1 1 2 3 3 3 3 3 2 2 2 2 2 2 1 1 2 2
2 2 3 2 1 2 1 1 1 2 2 2 2 2 1 1 1 1 1 1 1 2 1 2 3 4 3 3 3 3 2 2 2 2 2 2 2 2
2 1 1 1 1 1 1 1 1 1 2 2 2 1 1 1 1 1 0 1 1 2 2 1 1 1 2 2 3 3 3 3 3 2 1 2 3 3
3 2 3 3 3 3 3 2 2 2 2 2 2 2 2 2 2 1 1 1 2 2 2 1 1 1 1 1 3 3 3 3 2 2 1 2 3 3
3 3 3 4 4 3 3 3 3 3 2 2 3 3 2 2 2 2 2 2 3 3 2 1 1 2 2 3 2 3 3 2 1 1 2 2 3 3
3 4 4 4 4 4 4 3 3 2 2 3 3 3 3 2 2 2 2 3 3 2 2 1 2 3 4 4 2 2 3 3 2 2 2 2 2 4
4 4 4 4 4 4 4 3 3 3 3 3 3 3 3 3 3 3 3 4 3 3 3 4 4 3 1 1 1 2 1 3 2 2 1 1 2 2
4 4 4 4 4 4 4 3 3 3 3 3 3 3 3 3 4 4 4 4 3 3 4 3 1 1 1 2 3 3 2 1 2 2 2 2 2 2
5 4 4 4 4 4 4 4 5 4 4 4 4 3 3 3 3 4 4 4 3 3 2 2 1 1 2 3 3 2 3 2 1 1 3 4 5 6
Wind_Direction
169 159 166 191 176 170 156 153 148 154 274 300 324 327 334 61 48 65 63 68 67 64 60 57 55 53 53 51 49 47 47 48 48 44 40 38 35 33
152 136 150 168 150 147 151 149 149 152 176 243 259 307 353 57 72 72 74 75 64 62 61 62 62 60 58 57 53 49 47 45 45 42 39 36 31 28
135 140 153 138 124 127 128 128 131 134 153 237 312 353 41 40 32 42 64 55 52 64 64 68 68 62 59 57 52 47 44 41 40 36 34 31 28 24
180 144 166 135 125 127 128 135 142 144 149 172 309 13 27 30 48 55 43 54 52 54 67 70 70 65 59 56 53 49 47 43 35 30 26 23 22 21
179 172 183 149 149 144 138 138 135 121 122 145 166 67 29 34 54 47 47 21 29 42 55 60 68 69 58 54 53 50 47 42 32 28 21 15 14 16
173 183 183 174 176 168 159 157 137 120 115 123 131 99 76 38 104 116 33 23 16 16 25 40 38 38 26 38 46 42 38 37 29 23 18 12 13 13
168 188 186 177 176 169 162 164 149 140 136 135 153 136 207 179 198 198 184 351 351 2 6 3 5 344 320 315 321 360 25 25 21 11 13 13 10 5
177 192 184 183 171 171 169 164 160 160 170 170 184 199 223 212 195 181 168 145 282 299 147 309 41 277 284 271 290 267 289 334 353 357 7 8 3 3
192 191 187 161 168 163 161 163 175 183 179 178 187 211 212 207 180 179 184 184 210 223 159 270 280 272 276 285 277 257 257 271 301 331 349 356 358 358
202 192 185 201 172 156 144 141 200 226 207 201 204 216 210 195 185 187 187 177 210 204 147 224 258 262 292 290 284 268 270 278 279 286 307 326 344 350
220 204 193 202 192 166 150 168 236 269 247 214 216 219 205 185 164 134 140 146 234 244 179 188 230 265 291 293 296 305 294 290 278 277 294 318 336 342
223 218 205 202 196 178 175 178 214 254 254 273 266 269 255 207 180 177 180 181 192 234 200 180 196 177 287 281 296 307 303 299 288 281 282 300 339 352
202 229 231 213 208 200 192 198 215 219 204 194 211 272 336 233 215 206 199 190 195 220 192 169 178 180 202 271 290 283 276 288 279 266 269 283 306 316
207 220 220 210 211 210 207 209 210 207 179 169 190 235 237 244 239 227 222 222 221 216 187 167 175 183 182 223 261 272 282 271 251 258 272 290 292 294
213 211 208 204 204 208 213 202 194 190 174 198 227 242 239 234 221 225 242 223 251 251 191 189 189 188 190 211 231 238 260 268 250 257 267 263 267 278
214 201 187 175 193 208 198 202 203 196 193 219 240 252 248 213 209 207 223 216 248 286 273 223 208 195 214 232 222 238 234 237 254 264 271 283 291 282
170 138 129 155 192 227 228 221 214 203 218 230 232 242 238 231 248 234 203 181 213 258 283 298 255 220 218 212 226 238 243 252 251 259 266 283 284 279
149 177 200 208 217 223 221 226 221 215 221 224 225 228 233 235 245 235 197 205 227 243 251 242 142 75 6 306 224 231 242 256 264 259 241 259 280 285
171 203 214 217 219 219 219 222 228 227 214 211 219 228 234 238 239 237 226 228 240 247 249 224 192 189 240 276 274 209 228 246 245 259 254 254 268 283
207 212 221 224 221 220 218 220 225 222 216 217 221 224 226 229 235 239 237 238 242 251 258 240 222 220 229 245 256 262 226 216 220 249 276 286 284 295
219 222 223 222 226 225 220 215 213 215 220 221 225 227 223 220 233 240 241 245 242 244 249 254 252 243 219 107 287 292 261 233 231 234 247 276 294 303
219 221 223 223 222 222 220 213 213 216 219 224 229 232 229 221 228 235 238 241 241 242 252 262 261 175 179 215 242 259 279 292 283 274 248 227 222 241
219 220 221 221 220 217 216 214 213 218 217 220 222 225 224 229 233 233 234 236 240 243 250 255 246 218 224 225 234 253 267 277 283 294 291 283 267 267